Weather Roundup
Issued by NWS Corpus Christi, TX

Home | Current Version | Previous Version | Text Only | Print | Product List | Glossary On
Versions: 1 2 3 4 5 6 7 8 9 10 11 12 13 14 15 16 17 18 19 20 21 22 23 24 25 26 27 28 29 30 31 32 33 34 35 36 37 38 39 40 41 42 43 44 45 46 47 48 49 50
000
ASUS44 KCRP 262010
HRRCRP

SOUTH TEXAS REGIONAL WEATHER ROUNDUP
NATIONAL WEATHER SERVICE CORPUS CHRISTI TX
300 PM CDT SUN MAR 26 2017


TXZ229>244-262100-
...CORPUS CHRISTI AREA OBSERVATIONS...

CITY           SKY/WX    TMP DP  RH WIND       PRES   REMARKS
CORPUS CHRISTI MOSUNNY   84  69  60 SE30G38   29.82F
NAS CORPUS CHR FLURRIES N/A N/A N/A SE24G35   29.83F
ROCKPORT       PTSUNNY   81  70  69 SE20G29   29.83F
KINGSVILLE NAS MOSUNNY   87  71  58 SE24G35   29.78F HX  93
ALICE          SUNNY     91  64  40 SE16G22   29.77F HX  92
ORANGE GROVE   SUNNY     90  65  43 S20G28    29.78F HX  92
FALFURRIAS     SUNNY     90  58  33 S16G23    29.77F
$$

...VICTORIA AREA OBSERVATIONS...

CITY           SKY/WX    TMP DP  RH WIND       PRES   REMARKS
VICTORIA       MOSUNNY   83  69  62 SE23G29   29.85F
BEEVILLE       FAIR      87  67  52 SE18G24   29.81F
PLEASANTON     SUNNY     86  55  35 SE16G22   29.80F
SAN ANTONIO    MOSUNNY   85  59  41 S13G24    29.82F
$$

...LAREDO AREA OBSERVATIONS...

CITY           SKY/WX    TMP DP  RH WIND       PRES   REMARKS
LAREDO         SUNNY     92  59  33 S15       29.75F HX  91
COTULLA        SUNNY     92  56  29 SE16G25   29.76F HX  90
DEL RIO        SUNNY     87  51  28 VRB5      29.76F
MCALLEN        MOSUNNY   89  67  47 SE26G33   29.77F HX  92
HEBBRONVILLE   SUNNY     88  55  32 S15G21    29.78F
$$

...OTHER TEXAS OBSERVATIONS...

CITY           SKY/WX    TMP DP  RH WIND       PRES   REMARKS
BROWNSVILLE    PTSUNNY   82  70  65 MISG      29.82F
HOUSTON        MOSUNNY   84  61  45 SE18      29.86F
COL. STATION   SUNNY     85  59  41 S20G28    29.83F
AUSTIN         MOSUNNY   85  63  47 S18G26    29.80F
WACO           MOSUNNY   82  62  50 S18       29.80F
FORT WORTH     PTSUNNY   84  60  44 S21G29    29.75F
WICHITA FALLS  CLOUDY    79  56  45 S22G29    29.71F
LUBBOCK        MOSUNNY   78  16   9 W25G40    29.76F
EL PASO        MOSUNNY   73  21  14 W22G28    29.94F
$$

...MARINE OBSERVATIONS...

STATION/POSITION TIME  SKY/WX   TEMP    WIND        PRES    VSBY  WAVE   SWELL
                                AIR SEA DIR/SP/G                  HT/PER HT/PER
                 (UTC)          (F)     (DEG/KT/KT) (MB)    (MI)  (FT/S) (FT/S)
PORT ARANSAS     2000            73 73  130/ 16/ 18 1010.4F
BUOY 90 E PORT A 1950            74 73  130/ 21/ 25 1010.9F         5/ 8   2/ 8
BUOY 45 SE BAFFI 1950            74     150/ 17/ 21 1009.4F         5/ 8   2/ 8
BUOY 200 E PT IS 1950            76 77  150/ 14/ 14 1013.9F         4/ 6   3/ 6
BUOY 15 E GALVES 1850            72 72  140/ 10/ 12 1013.8          3/ 7   2/ 7
$$




USA.gov is the U.S. government's official web portal to all federal, state and local government web resources and services.